Portada
METAR-TAF:

METAR-TAF

Aeroports :

Pekanbaru, Indonèsia

latitud: 00-28N, longitud: 101-27E, altitud: 31 m

Observació

L'informe es va fer fa 3 hores i 28 minuts, a les 18:00 UTC
Vent calma
Temperatura 25°C
Humitat 100%
Pressió 1008 hPa
Visibilitat: 5000 m
Núvols disperses a una alçada de 1300 ft
boirina

METAR: WIBB 261800Z 00000KT 5000 BR SCT013 25/25 Q1008

Hora: 04:28 (21:28 UTC)


TAF: manca

Observacions i pronòstics meteorològics de més de 4000 aeroports (METAR i TAF).

Les estacions disponibles són els punts grocs i vermells al mapa.

Posi el ratolí al punt desitjat per veure el nom de l'estació.

Feu clic per veure les observacions i els pronòstics meteorològics.

Per canviar el mapa: feu clic els botons verds amb una creu de color negre per apropar; al botó verd amb un guió per allunyar la imatge; o en les fletxes verdes per a mapes adjacents.


METAR-TAF: